Location: Unspecified
(0.0000°N, 0.0000°E)
Time: 07:58:57
(UTC+00:00)

Hubble Space Telescope - Pass Details

Date: 26 July 2021
Orbit: 535 x 539 km, 28.5° (Epoch: 31 July)

Event Time Altitude Azimuth Distance (km) Brightness Sun altitude
Exits shadow 05:04:43 10° 196° (SSW) 1,779 3.1 -14.6°
Drops below altitude 10° 05:04:49 10° 194° (SSW) 1,786 3.1 -14.5°
Sets 05:08:58 0° 154° (SSE) 2,675 4.4 -13.6°
